Tracking 19827 objects as of 21-Aug-2019
HD Live streaming from Space Station
objects crossing your sky now

DICE 1

Track DICE 1 now!
10-day predictions
DICE 1 is classified as:


NORAD ID: 37851
Int'l Code: 2011-061B
Perigee: 437.2 km
Apogee: 689.5 km
Inclination: 101.7 °
Period: 95.8 minutes
Semi major axis: 6934 km
RCS: 0.0809 m2 (small)
Launch date: October 28, 2011
Source: United States (US)
Launch site: AIR FORCE WESTERN TEST RANGE (AFWTR)
aabbcc
Your satellite tracking list
Your tracking list is empty




NASA's NSSDC Master Catalog

Two Line Element Set (TLE):
1 37851U 11061B   19232.72697303 +.00000865 +00000-0 +52795-4 0  9998
2 37851 101.7298 154.5937 0181865 273.1141 084.9276 15.03467197425578
Source of the keplerian elements: AFSPC